Location: Newark
(51.2625°N, 13.3939°E)
Time: 08:48:26
(UTC+00:00)

Transit 2A Rocket - Pass Details

Date: 18 January 2021
Orbit: 594 x 909 km, 66.7° (Epoch: 24 February)

Event Time Altitude Azimuth Distance (km) Brightness Sun altitude
Rises 18:43:35 0° 320° (NW) 3,050 8.7 -29.2°
Reaches altitude 10° 18:46:41 10° 340° (NNW) 2,075 7.5 -29.7°
Enters shadow 18:47:29 13° 348° (NNW) 1,879 7.2 -29.8°
